Wind_Speed
34 34 34 34 34 35 35 34 34 34 34 34 34 34 34 33 33 32 31 31 30 29 28 28 27 27 27 26 26 25 25 24 24 24 23 23 23 23 23 23 23 23 22
35 35 36 36 35 36 37 37 36 36 36 36 35 35 36 36 34 34 33 33 32 32 31 30 30 29 28 28 27 27 27 27 26 26 25 25 25 25 25 25 25 24 24
35 36 37 37 37 37 37 38 38 39 39 39 38 37 37 37 37 36 35 34 34 33 33 32 32 31 30 30 30 30 29 29 28 28 28 28 28 27 27 27 27 26 26
35 36 36 36 38 38 39 39 40 41 41 40 40 40 39 39 40 40 38 36 36 35 35 34 34 33 33 32 32 32 32 31 31 30 30 30 30 29 29 28 28 28 28
37 37 37 38 38 39 41 41 41 42 42 42 42 41 40 40 40 40 40 39 38 37 37 36 36 36 35 34 34 33 33 33 32 32 32 31 31 31 31 30 30 29 29
38 39 39 39 39 40 41 42 43 42 43 44 44 43 41 41 42 42 41 40 40 40 40 39 39 38 37 37 36 35 34 34 34 34 34 33 33 33 32 32 32 31 31
39 40 40 40 40 40 41 42 43 44 44 45 45 45 43 42 42 42 42 42 41 41 42 41 41 41 40 39 38 37 37 37 36 35 35 35 35 35 34 34 33 33 33
40 40 41 41 42 41 42 42 43 44 45 46 46 46 46 44 44 44 43 43 43 42 42 42 42 42 41 41 40 40 39 38 38 37 36 36 36 36 35 35 35 35 34
39 41 42 42 43 43 43 43 43 44 46 46 47 48 47 45 45 45 45 44 44 43 43 43 42 43 42 41 42 42 42 41 41 40 39 38 37 37 36 36 37 37 36
39 40 41 42 42 43 43 43 44 44 45 46 47 48 48 47 46 46 46 46 45 44 44 44 44 44 44 44 43 44 44 43 42 42 41 41 40 39 39 39 38 39 38
39 39 40 40 40 41 42 42 43 45 45 45 46 47 47 47 47 46 46 46 47 46 46 46 46 46 46 45 44 44 44 44 44 43 43 43 42 41 41 41 41 41 40
40 40 40 40 41 41 41 42 43 44 45 45 46 46 47 47 48 47 46 46 47 47 47 47 46 46 47 46 45 45 44 45 45 45 44 45 45 44 44 43 43 42 42
39 39 40 40 40 41 41 42 42 42 43 45 46 46 47 48 48 48 48 47 47 47 48 48 48 48 48 47 47 46 46 46 46 46 47 46 46 47 47 46 45 45 43
39 39 39 40 41 41 42 42 42 42 42 44 45 46 47 48 49 48 48 48 47 47 47 47 47 49 50 49 49 48 49 48 48 48 48 47 48 48 48 48 48 47 46
39 39 40 41 41 41 42 43 42 43 44 45 45 46 47 47 48 49 49 50 50 50 49 48 49 49 50 50 50 49 50 51 51 50 50 50 49 49 50 49 48 48 48
38 39 40 40 41 41 42 42 43 43 44 46 46 46 46 47 48 48 49 50 51 52 52 50 50 49 50 50 50 50 50 51 52 51 52 51 51 50 50 50 50 50 49
38 38 39 40 40 40 40 41 42 44 43 44 45 45 45 46 47 47 48 49 50 51 51 50 50 49 50 49 49 49 50 50 51 52 52 53 53 52 52 52 53 52 52
37 37 38 39 39 39 39 40 41 41 41 42 43 43 44 45 45 46 47 47 49 50 49 49 49 49 50 49 49 50 51 52 50 50 52 53 54 53 53 53 54 54 53
35 36 36 37 37 36 36 36 36 36 37 39 40 41 42 43 44 45 45 46 47 48 48 49 49 49 50 51 51 51 52 53 52 51 52 53 54 55 55 53 53 53 52
34 34 33 33 33 33 33 33 34 35 36 37 38 38 40 41 43 45 46 46 46 46 47 48 49 49 50 51 52 52 51 52 52 52 53 52 53 53 53 53 52 52 53
32 32 31 31 32 32 33 34 35 36 37 37 37 38 39 41 42 43 43 43 44 45 47 47 49 49 50 51 52 52 52 52 53 54 54 54 54 54 53 53 53 53 53
32 32 32 31 31 32 34 35 35 36 36 36 36 37 38 39 40 41 42 42 43 43 45 46 47 48 49 49 50 51 52 52 53 53 54 54 54 53 53 54 54 54 55
32 32 32 32 32 33 34 35 35 34 35 35 36 37 37 38 39 40 41 42 43 43 44 45 45 47 47 47 48 51 52 53 53 53 54 53 53 54 54 55 55 55 56
31 32 32 32 32 32 33 33 34 34 34 35 36 37 37 37 38 39 40 41 41 42 43 43 44 44 45 46 47 48 49 51 52 53 54 53 53 54 54 55 55 55 56
30 30 30 30 31 31 31 31 32 32 33 34 34 34 35 36 36 37 38 38 38 39 40 41 43 44 45 46 46 47 47 48 49 50 52 52 53 53 54 55 55 54 54
29 29 29 29 30 30 30 30 31 31 31 31 31 32 33 33 34 35 35 35 36 37 38 39 40 41 42 43 44 45 46 47 47 49 50 52 52 52 51 52 53 53 53
Wind_Direction
260 260 259 259 259 258 258 258 258 257 257 257 257 258 258 258 260 259 258 259 261 261 261 262 264 265 266 267 268 269 270 272 274 277 278 280 282 284 285 286 288 291 293
261 260 260 260 260 259 258 258 258 258 258 258 258 259 259 258 258 259 259 259 260 260 260 262 263 264 265 267 268 268 270 272 274 275 277 279 281 283 284 285 287 288 289
262 262 261 261 261 260 259 259 258 259 258 258 258 259 260 260 258 259 259 259 259 259 260 261 262 263 264 266 267 268 269 271 272 274 276 277 279 281 282 283 284 286 287
263 262 262 262 262 260 260 260 259 259 259 258 258 259 260 260 259 258 258 259 259 259 260 261 262 263 265 266 266 268 269 270 271 273 274 276 277 278 279 281 283 283 284
262 263 263 263 263 262 262 262 261 260 258 258 258 259 260 260 259 259 259 259 258 258 260 260 262 263 265 266 266 267 269 270 270 272 273 275 277 277 278 279 281 283 283
263 263 263 264 264 264 264 263 261 261 259 258 257 258 259 260 260 260 260 260 259 258 259 260 261 263 264 265 265 266 268 269 270 271 273 274 276 277 278 279 279 281 282
264 264 263 264 265 265 265 263 261 260 260 258 257 257 259 261 261 261 261 261 260 260 260 260 261 262 263 264 264 265 266 268 270 271 272 273 274 275 277 278 279 280 280
267 266 265 265 265 265 265 264 262 261 260 259 258 258 258 259 259 259 261 261 260 261 261 261 262 263 263 263 264 264 265 266 268 269 271 272 273 274 275 277 278 279 279
270 269 267 268 268 267 266 265 264 262 261 259 258 258 258 258 260 259 260 261 260 261 261 262 262 263 264 264 264 265 265 266 267 268 269 271 272 273 274 275 277 277 278
273 272 270 269 268 268 267 266 265 263 261 260 259 258 258 259 260 259 259 260 260 260 261 262 262 263 264 265 265 266 266 266 266 267 268 270 271 272 273 274 276 276 276
273 273 271 269 268 268 268 267 266 264 262 261 260 258 258 257 259 260 259 259 260 260 261 261 262 262 263 264 264 265 266 265 265 266 268 269 270 271 272 273 274 274 275
273 272 271 269 268 268 268 267 267 265 263 261 260 259 258 257 258 260 260 260 259 260 260 261 262 262 262 264 264 264 264 265 265 266 267 268 269 270 271 272 272 272 273
274 273 272 270 269 267 268 268 266 264 263 261 260 260 259 258 257 259 259 260 260 260 261 261 262 263 263 263 264 263 263 265 265 266 267 268 268 268 270 271 271 271 272
274 273 272 271 270 268 268 268 267 265 264 263 262 261 260 259 258 258 259 260 260 261 262 262 262 263 263 264 264 264 263 263 264 266 267 267 268 269 269 270 270 270 271
276 275 273 271 270 270 270 268 266 265 264 263 263 262 261 261 260 260 260 261 261 261 262 263 263 263 263 263 263 264 264 263 264 265 265 266 268 268 269 269 269 269 269
278 276 274 272 271 270 270 269 267 266 266 264 263 262 261 261 261 261 261 261 261 263 264 263 263 263 263 263 263 263 264 264 264 265 265 265 267 269 269 268 267 268 268
279 278 275 273 272 272 271 269 268 267 266 264 263 261 261 262 261 261 261 262 262 263 264 263 262 262 263 263 263 264 264 265 265 266 266 266 268 269 270 268 267 267 268
281 279 276 274 273 272 271 271 270 269 266 264 263 261 261 262 261 261 261 263 263 263 264 263 262 262 261 261 263 264 264 264 265 266 266 266 268 269 271 270 268 268 268
282 280 279 276 274 273 273 272 270 269 267 265 264 263 263 263 261 262 263 264 264 264 263 263 263 263 262 261 262 264 265 265 266 266 267 267 268 269 270 271 270 268 267
281 281 280 277 274 273 273 272 272 270 269 268 266 265 264 265 264 263 263 264 264 264 264 264 265 265 264 263 264 265 266 267 267 268 268 268 269 270 270 270 270 269 269
282 281 279 277 275 274 274 273 272 270 269 269 267 267 267 267 266 265 264 265 265 265 265 265 266 266 266 265 265 266 267 268 268 269 270 271 271 271 270 270 270 270 269
283 281 279 277 275 275 275 275 274 271 270 270 269 269 269 268 267 266 266 266 266 266 266 267 267 267 268 268 268 268 268 268 269 270 270 270 271 270 269 269 270 270 269
282 281 280 278 276 276 277 278 277 275 273 272 271 270 269 269 269 268 267 267 267 266 267 268 269 269 269 270 270 270 270 270 269 269 269 270 270 269 270 269 269 270 269
282 282 281 279 278 278 278 278 278 277 276 275 274 272 271 271 270 269 269 268 268 268 269 270 270 271 272 272 272 272 271 271 270 270 270 270 270 270 270 270 271 271 271
283 284 284 282 280 280 280 280 279 279 278 277 275 273 272 272 271 271 271 271 271 271 271 271 273 273 274 274 274 274 274 274 273 271 271 272 272 272 271 271 271 271 271
283 284 284 283 282 281 282 282 282 280 279 277 277 275 274 273 273 273 272 272 272 272 273 273 275 276 276 276 276 276 277 277 277 275 273 273 273 273 271 270 270 271 271
Height
5803 5804 5806 5807 5808 5810 5811 5813 5814 5815 5817 5818 5820 5821 5823 5824 5825 5826 5827 5828 5830 5831 5831 5832 5833 5833 5834 5834 5834 5835 5835 5835 5835 5835 5835 5835 5834 5834 5833 5832 5831 5830 5829
5795 5796 5798 5799 5800 5802 5803 5805 5806 5807 5809 5811 5812 5814 5815 5816 5817 5819 5820 5821 5823 5824 5825 5826 5826 5827 5828 5828 5829 5829 5829 5830 5830 5830 5830 5829 5829 5829 5828 5827 5826 5825 5824
5787 5788 5789 5791 5792 5793 5795 5796 5797 5799 5800 5802 5804 5806 5807 5808 5809 5811 5812 5814 5815 5817 5818 5819 5820 5820 5821 5822 5822 5823 5823 5823 5824 5824 5824 5824 5823 5823 5822 5822 5821 5820 5819
5778 5780 5781 5782 5783 5784 5785 5787 5789 5790 5791 5793 5795 5797 5798 5800 5801 5803 5804 5806 5807 5809 5810 5811 5812 5813 5814 5815 5815 5816 5816 5817 5817 5817 5817 5817 5817 5817 5816 5816 5815 5814 5813
5770 5771 5772 5773 5774 5775 5776 5778 5779 5781 5782 5784 5786 5788 5789 5791 5792 5794 5796 5797 5799 5801 5802 5803 5805 5806 5807 5807 5808 5808 5809 5809 5810 5810 5810 5810 5810 5810 5810 5809 5808 5808 5807
5761 5762 5763 5764 5765 5766 5767 5768 5769 5771 5772 5774 5776 5778 5780 5782 5783 5785 5786 5788 5790 5792 5794 5795 5796 5797 5798 5799 5800 5801 5801 5802 5802 5802 5803 5803 5803 5803 5802 5802 5802 5801 5800
5752 5753 5754 5755 5755 5756 5756 5757 5758 5760 5762 5764 5766 5768 5770 5772 5774 5775 5777 5779 5781 5782 5784 5786 5787 5788 5789 5790 5791 5792 5793 5794 5794 5794 5795 5795 5795 5795 5794 5795 5794 5794 5793
5742 5743 5744 5745 5745 5746 5746 5747 5748 5750 5752 5753 5756 5757 5760 5763 5764 5766 5767 5769 5771 5773 5775 5776 5778 5779 5780 5781 5782 5783 5784 5785 5785 5786 5786 5786 5787 5786 5787 5786 5786 5785 5785
5732 5732 5733 5734 5734 5735 5736 5737 5737 5739 5741 5743 5744 5747 5749 5752 5755 5756 5758 5759 5761 5763 5765 5766 5768 5769 5770 5771 5773 5773 5774 5775 5776 5777 5777 5777 5778 5778 5778 5778 5777 5777 5776
5722 5722 5723 5724 5724 5725 5725 5726 5727 5728 5730 5732 5733 5735 5738 5741 5743 5745 5747 5749 5750 5752 5754 5756 5757 5758 5759 5761 5762 5763 5764 5765 5765 5766 5767 5768 5768 5769 5769 5769 5768 5767 5767
5712 5712 5713 5713 5714 5714 5715 5716 5716 5717 5718 5720 5722 5724 5726 5729 5730 5733 5736 5738 5739 5741 5743 5744 5746 5747 5749 5749 5751 5752 5753 5754 5754 5755 5757 5757 5758 5758 5759 5758 5758 5758 5757
5703 5702 5703 5703 5704 5704 5705 5705 5705 5706 5707 5709 5710 5712 5715 5717 5719 5721 5724 5726 5728 5730 5731 5732 5734 5735 5737 5738 5739 5740 5741 5743 5743 5744 5745 5746 5747 5747 5747 5747 5747 5747 5747
5692 5692 5692 5693 5693 5694 5694 5694 5694 5695 5696 5697 5699 5701 5703 5705 5707 5709 5711 5713 5715 5717 5718 5720 5721 5723 5725 5726 5727 5728 5729 5731 5732 5732 5733 5734 5735 5735 5735 5735 5735 5736 5736
5682 5682 5682 5682 5682 5682 5682 5683 5683 5684 5685 5686 5687 5689 5691 5693 5694 5696 5698 5700 5702 5705 5706 5708 5709 5710 5712 5713 5714 5715 5717 5718 5719 5720 5721 5721 5722 5722 5722 5722 5723 5723 5724
5672 5671 5671 5671 5671 5671 5671 5671 5672 5672 5673 5674 5675 5677 5678 5680 5682 5684 5686 5687 5690 5692 5694 5696 5697 5698 5699 5700 5701 5702 5703 5705 5706 5707 5707 5708 5708 5709 5709 5709 5709 5710 5711
5661 5661 5661 5660 5660 5660 5659 5659 5660 5661 5661 5662 5663 5665 5666 5668 5670 5671 5673 5674 5676 5678 5680 5683 5684 5685 5685 5687 5688 5689 5690 5691 5692 5692 5693 5694 5695 5695 5695 5695 5695 5696 5697
5651 5650 5649 5649 5649 5648 5648 5647 5647 5648 5648 5649 5651 5652 5654 5656 5657 5659 5660 5661 5662 5664 5666 5669 5670 5671 5672 5673 5675 5676 5676 5677 5678 5678 5679 5680 5680 5681 5681 5681 5681 5682 5683
5641 5639 5638 5637 5636 5636 5636 5635 5635 5635 5636 5637 5638 5640 5642 5643 5644 5646 5647 5648 5649 5650 5652 5655 5656 5657 5659 5660 5661 5661 5662 5663 5664 5664 5665 5665 5666 5666 5666 5666 5667 5668 5668
5630 5628 5627 5626 5625 5624 5624 5624 5624 5624 5625 5625 5626 5628 5629 5630 5632 5633 5634 5634 5635 5637 5638 5640 5642 5643 5644 5645 5646 5647 5648 5648 5649 5650 5650 5650 5651 5651 5651 5651 5651 5652 5653
5620 5618 5616 5615 5615 5614 5614 5614 5614 5614 5614 5615 5615 5616 5617 5618 5619 5620 5621 5622 5623 5623 5625 5626 5627 5629 5630 5631 5631 5633 5633 5633 5634 5634 5634 5635 5636 5636 5636 5635 5636 5636 5637
5610 5609 5607 5606 5605 5605 5604 5604 5604 5604 5604 5604 5604 5605 5605 5606 5606 5607 5608 5609 5609 5610 5611 5612 5613 5614 5615 5616 5617 5618 5619 5619 5619 5619 5620 5620 5620 5620 5619 5619 5619 5619 5620
5601 5599 5598 5596 5595 5595 5594 5594 5593 5593 5593 5593 5594 5594 5594 5594 5594 5594 5595 5596 5596 5597 5598 5598 5599 5600 5601 5601 5602 5602 5603 5604 5605 5606 5604 5605 5603 5603 5603 5603 5603 5603 5603
5591 5590 5588 5587 5586 5585 5584 5583 5583 5582 5582 5582 5582 5582 5583 5582 5582 5582 5582 5583 5583 5583 5584 5585 5585 5585 5586 5586 5587 5587 5586 5586 5588 5588 5588 5589 5587 5587 5586 5586 5586 5586 5586
5582 5580 5578 5577 5576 5575 5574 5573 5572 5572 5572 5571 5571 5571 5571 5571 5570 5570 5570 5570 5570 5570 5570 5571 5571 5571 5571 5571 5571 5570 5570 5570 5570 5570 5570 5571 5571 5570 5569 5568 5567 5567 5567
5573 5571 5569 5567 5566 5565 5564 5563 5562 5562 5561 5561 5560 5559 5559 5559 5559 5558 5558 5558 5558 5557 5557 5557 5557 5557 5556 5556 5555 5555 5554 5554 5555 5554 5553 5553 5554 5554 5553 5552 5550 5549 5549
5564 5562 5560 5559 5557 5556 5555 5554 5553 5552 5552 5551 5550 5549 5548 5548 5547 5547 5547 5547 5546 5546 5546 5545 5544 5544 5543 5542 5541 5540 5540 5539 5538 5539 5538 5537 5536 5536 5537 5537 5535 5533 5533